Kearney, NE

6:00 PM CST on November 18, 2017 (GMT -0600)
Kearney Municipal

Weather History for KEAR - May, 2013

Change the Weather History Date:

Monday, May 20, 2013

  Actual Average Record
Temperature  
Mean Temperature 63 °F 61 °F  
Max Temperature 70 °F 73 °F 98 °F (1934)
Min Temperature 55 °F 49 °F 30 °F (1968)
Degree Days  
Heating Degree Days 2 5  
Month to date heating degree days 165  
Cooling Degree Days 0 1  
Month to date cooling degree days 20  
Growing Degree Days 12 (Base 50)    
Moisture  
Dew Point 50 °F    
Average Humidity 63    
Maximum Humidity 86    
Minimum Humidity 40    
Precipitation  
Precipitation 0.03 in - 1.10 in (1933)
Sea Level Pressure  
Sea Level Pressure 29.67 in    
Wind  
Wind Speed 17 mph (West)    
Max Wind Speed 25 mph    
Max Gust Speed 32 mph    
Visibility 10 miles    
Events      
T = Trace of Precipitation, MM = Missing Value Source: NWS Daily Summary

Daily Weather History Graph

Daily Weather History Graph

Search for Another Location

Airport or City:

Trip Planner

Search our weather history database for the weather conditions in past years. The results will help you decide how hot, cold, wet, or windy it might be!

Date:

Astronomy

May. 20, 2013 Rise Set
Actual Time 6:14 AM CDT 8:51 PM CDT
Civil Twilight 5:42 AM CDT 9:23 PM CDT
Nautical Twilight 5:03 AM CDT 10:02 PM CDT
Astronomical Twilight 4:18 AM CDT 10:47 PM CDT
Moon 3:59 PM CDT (5/20) 3:11 AM CDT (5/20)
Length of Visible Light 15h 40m
Length of Day
14h 37m
Waxing Gibbous, 75% of the Moon is Illuminated
May 20
Waxing Gibbous
May 24
Full
May 31
Last Quarter
Jun 8
New
Jun 16
First Quarter

Hourly Weather History & Observations

Time (CDT) Temp. Dew Point Humidity Pressure Visibility Wind Dir Wind Speed Gust Speed Precip Events Conditions
12:15 AM 60.8 °F 53.6 °F 77% 29.60 in 10.0 mi West 15.0 mph 23.0 mph N/A   Overcast
12:35 AM 59.0 °F 53.6 °F 82% 29.60 in 10.0 mi WSW 16.1 mph 23.0 mph N/A   Overcast
12:55 AM 59.0 °F 53.6 °F 82% 29.60 in 10.0 mi WSW 17.3 mph 21.9 mph N/A   Overcast
1:15 AM 59.0 °F 53.6 °F 82% 29.62 in 10.0 mi West 16.1 mph 23.0 mph N/A   Overcast
1:35 AM 57.2 °F 53.6 °F 88% 29.62 in 10.0 mi West 18.4 mph 24.2 mph N/A   Overcast
1:55 AM 57.2 °F 53.6 °F 88% 29.62 in 10.0 mi West 15.0 mph - N/A   Overcast
2:15 AM 59.0 °F 53.6 °F 82% 29.63 in 10.0 mi WNW 16.1 mph 24.2 mph N/A   Overcast
2:35 AM 57.2 °F 55.4 °F 94% 29.63 in 5.0 mi WNW 15.0 mph 19.6 mph 0.01 in   Mostly Cloudy
2:55 AM 57.2 °F 53.6 °F 88% 29.63 in 8.0 mi WNW 13.8 mph 21.9 mph N/A   Overcast
3:15 AM 57.2 °F 53.6 °F 88% 29.64 in 10.0 mi WNW 13.8 mph - N/A   Overcast
3:35 AM 57.2 °F 53.6 °F 88% 29.65 in 10.0 mi WNW 10.4 mph - N/A   Overcast
3:55 AM 57.2 °F 51.8 °F 82% 29.65 in 10.0 mi WNW 11.5 mph - N/A   Overcast
4:15 AM 57.2 °F 51.8 °F 82% 29.65 in 10.0 mi WNW 12.7 mph 19.6 mph N/A   Overcast
4:35 AM 55.4 °F 51.8 °F 88% 29.66 in 10.0 mi WNW 8.1 mph - N/A   Overcast
4:55 AM 55.4 °F 51.8 °F 88% 29.66 in 10.0 mi WNW 11.5 mph - N/A   Overcast
5:15 AM 55.4 °F 51.8 °F 88% 29.67 in 10.0 mi WSW 10.4 mph - N/A   Mostly Cloudy
5:35 AM 55.4 °F 51.8 °F 88% 29.66 in 10.0 mi West 10.4 mph - N/A   Mostly Cloudy
5:55 AM 55.4 °F 51.8 °F 88% 29.67 in 10.0 mi West 9.2 mph - N/A   Overcast
6:15 AM 55.4 °F 51.8 °F 88% 29.67 in 10.0 mi West 11.5 mph - N/A   Overcast
6:35 AM 55.4 °F 53.6 °F 94% 29.68 in 10.0 mi WSW 13.8 mph - N/A   Overcast
6:55 AM 57.2 °F 53.6 °F 88% 29.69 in 10.0 mi West 12.7 mph 19.6 mph N/A   Overcast
7:15 AM 57.2 °F 53.6 °F 88% 29.69 in 10.0 mi West 11.5 mph - N/A   Mostly Cloudy
7:35 AM 57.2 °F 53.6 °F 88% 29.70 in 10.0 mi West 6.9 mph - N/A   Mostly Cloudy
7:55 AM 57.2 °F 53.6 °F 88% 29.71 in 10.0 mi WSW 10.4 mph - N/A   Mostly Cloudy
8:15 AM 57.2 °F 53.6 °F 88% 29.70 in 10.0 mi WSW 9.2 mph - N/A   Mostly Cloudy
8:35 AM 59.0 °F 53.6 °F 82% 29.71 in 10.0 mi WSW 10.4 mph - N/A   Mostly Cloudy
8:55 AM 59.0 °F 53.6 °F 82% 29.70 in 10.0 mi WSW 11.5 mph - N/A   Overcast
9:15 AM 60.8 °F 51.8 °F 72% 29.69 in 10.0 mi West 8.1 mph - N/A   Mostly Cloudy
9:35 AM 62.6 °F 53.6 °F 72% 29.69 in 10.0 mi WSW 16.1 mph 21.9 mph N/A   Scattered Clouds
9:55 AM 62.6 °F 53.6 °F 72% 29.69 in 10.0 mi WSW 19.6 mph 26.5 mph N/A   Mostly Cloudy
10:15 AM 62.6 °F 51.8 °F 68% 29.69 in 10.0 mi West 15.0 mph 20.7 mph N/A   Scattered Clouds
10:35 AM 62.6 °F 50.0 °F 63% 29.69 in 10.0 mi WSW 19.6 mph 26.5 mph N/A   Mostly Cloudy
10:55 AM 62.6 °F 48.2 °F 59% 29.69 in 10.0 mi WSW 18.4 mph 29.9 mph N/A   Scattered Clouds
11:15 AM 64.4 °F 48.2 °F 56% 29.69 in 10.0 mi West 17.3 mph 25.3 mph N/A   Scattered Clouds
11:35 AM 64.4 °F 48.2 °F 56% 29.69 in 10.0 mi West 17.3 mph 27.6 mph N/A   Mostly Cloudy
11:55 AM 66.2 °F 48.2 °F 52% 29.69 in 10.0 mi West 18.4 mph 25.3 mph N/A   Mostly Cloudy
12:15 PM 66.2 °F 48.2 °F 52% 29.69 in 10.0 mi West 19.6 mph 26.5 mph N/A   Overcast
12:35 PM 66.2 °F 48.2 °F 52% 29.68 in 10.0 mi WSW 17.3 mph 27.6 mph N/A   Mostly Cloudy
12:55 PM 68.0 °F 46.4 °F 46% 29.68 in 10.0 mi West 19.6 mph 24.2 mph N/A   Mostly Cloudy
1:15 PM 68.0 °F 46.4 °F 46% 29.67 in 10.0 mi West 20.7 mph 29.9 mph N/A   Mostly Cloudy
1:55 PM 68.0 °F 46.4 °F 46% 29.67 in 10.0 mi West 18.4 mph 27.6 mph N/A   Overcast
2:15 PM 68.0 °F 44.6 °F 43% 29.67 in 10.0 mi West 20.7 mph 27.6 mph N/A   Overcast
2:35 PM 68.0 °F 46.4 °F 46% 29.66 in 10.0 mi West 19.6 mph 25.3 mph N/A   Overcast
2:55 PM 68.0 °F 46.4 °F 46% 29.66 in 10.0 mi WSW 21.9 mph 26.5 mph N/A   Overcast
3:15 PM 68.0 °F 44.6 °F 43% 29.66 in 10.0 mi West 15.0 mph 24.2 mph N/A   Overcast
3:35 PM 69.8 °F 44.6 °F 40% 29.66 in 10.0 mi West 21.9 mph 28.8 mph N/A   Overcast
3:55 PM 68.0 °F 44.6 °F 43% 29.66 in 10.0 mi WSW 21.9 mph 29.9 mph N/A   Overcast
4:15 PM 69.8 °F 44.6 °F 40% 29.65 in 10.0 mi West 16.1 mph 29.9 mph N/A   Mostly Cloudy
4:35 PM 69.8 °F 42.8 °F 38% 29.65 in 10.0 mi West 23.0 mph 28.8 mph N/A   Mostly Cloudy
4:55 PM 69.8 °F 44.6 °F 40% 29.64 in 10.0 mi West 21.9 mph 32.2 mph N/A   Mostly Cloudy
5:15 PM 66.2 °F 42.8 °F 43% 29.64 in 10.0 mi West 25.3 mph 29.9 mph N/A   Mostly Cloudy
5:35 PM 68.0 °F 44.6 °F 43% 29.65 in 10.0 mi West 21.9 mph 28.8 mph N/A   Scattered Clouds
5:55 PM 64.4 °F 44.6 °F 49% 29.66 in 10.0 mi West 23.0 mph 31.1 mph N/A   Mostly Cloudy
6:15 PM 64.4 °F 44.6 °F 49% 29.66 in 10.0 mi West 17.3 mph - N/A   Overcast
6:35 PM 64.4 °F 48.2 °F 56% 29.67 in 10.0 mi West 21.9 mph 29.9 mph N/A   Overcast
6:55 PM 62.6 °F 48.2 °F 59% 29.68 in 10.0 mi West 25.3 mph 31.1 mph N/A   Mostly Cloudy
7:15 PM 62.6 °F 48.2 °F 59% 29.67 in 10.0 mi West 20.7 mph 27.6 mph N/A   Mostly Cloudy
7:35 PM 60.8 °F 48.2 °F 63% 29.67 in 10.0 mi West 24.2 mph 31.1 mph N/A   Overcast
7:55 PM 60.8 °F 50.0 °F 68% 29.67 in 10.0 mi West 19.6 mph 25.3 mph N/A   Overcast
8:15 PM 60.8 °F 51.8 °F 72% 29.67 in 10.0 mi West 18.4 mph 21.9 mph N/A   Mostly Cloudy
8:35 PM 60.8 °F 50.0 °F 68% 29.67 in 10.0 mi West 26.5 mph 31.1 mph N/A   Overcast
8:55 PM 60.8 °F 48.2 °F 63% 29.68 in 10.0 mi WNW 19.6 mph 29.9 mph N/A   Overcast
9:15 PM 57.2 °F 51.8 °F 82% 29.70 in 7.0 mi WNW 17.3 mph - N/A   Overcast
9:35 PM 57.2 °F 51.8 °F 82% 29.71 in 10.0 mi WNW 15.0 mph 24.2 mph N/A   Overcast
9:55 PM 57.2 °F 48.2 °F 72% 29.71 in 10.0 mi WNW 18.4 mph 23.0 mph N/A   Overcast
10:15 PM 57.2 °F 48.2 °F 72% 29.73 in 10.0 mi WNW 13.8 mph 23.0 mph N/A   Overcast
10:35 PM 57.2 °F 50.0 °F 77% 29.74 in 10.0 mi WNW 17.3 mph 27.6 mph N/A   Overcast
10:55 PM 57.2 °F 48.2 °F 72% 29.74 in 10.0 mi WNW 15.0 mph - N/A   Overcast
11:15 PM 57.2 °F 48.2 °F 72% 29.75 in 10.0 mi WNW 16.1 mph 21.9 mph N/A   Overcast
11:35 PM 57.2 °F 48.2 °F 72% 29.76 in 10.0 mi West 13.8 mph - N/A   Overcast
11:55 PM 55.4 °F 48.2 °F 77% 29.75 in 10.0 mi West 13.8 mph - N/A   Overcast